Hourly Data Report for October 12, 2013

All times are specified in Local Standard Time (LST). Add 1 hour to adjust for Daylight Saving Time where and when it is observed.

HALL BEACH A
NUNAVUT

68°46'33.000" N
81°14'33.000" W
9.10 m
2402354
71293
YUX

Download Data

Hourly Data (October 2013)
Hourly Data Report for October 12, 2013
Temp Definition
°C
Dew Point Temp Definition
°C
Rel Hum Definition
%
Wind Dir Definition
10's deg

Wind Spd Definition
km/h
Visibility Definition
km
Stn Press Definition
kPa
Hmdx Definition


Wind Chill Definition


Weather Definition


TIME
00:00 Legend Double Dagger 0.4 -0.2 96 19 33 16.1 100.86     LegendNANA
01:00 Legend Double Dagger 0.7 0.0 95 20 30 16.1 100.86     LegendNANA
02:00 Legend Double Dagger 0.6 -0.1 95 19 30 16.1 100.86     LegendNANA
03:00 Legend Double Dagger 0.4 -0.2 96 20 30 16.1 100.84     LegendNANA
04:00 Legend Double Dagger 0.4 -0.2 96 20 28 16.1 100.83     LegendNANA
05:00 Legend Double Dagger 0.3 -0.1 97 19 28 12.9 100.79     LegendNANA
06:00 Legend Double Dagger 0.0 -0.4 97 19 32 16.1 100.74   -7 LegendNANA
07:00 Legend Double Dagger 0.2 -0.2 97 20 30 4.8 100.69     LegendNANA
08:00 Legend Double Dagger 0.1 -0.3 97 19 30 16.1 100.64     LegendNANA
09:00 Legend Double Dagger -0.3 -0.7 97 19 28 12.9 100.57   -7 LegendNANA
10:00 Legend Double Dagger -0.3 -0.7 97 19 30 11.3 100.55   -7 LegendNANA
11:00 Legend Double Dagger -0.2 -0.6 97 20 26 16.1 100.50   -6 LegendNANA
12:00 Legend Double Dagger 0.0 -0.4 97 20 24 8.1 100.47   -6 LegendNANA
13:00 Legend Double Dagger -0.1 -0.5 97 20 22 16.1 100.44   -6 LegendNANA
14:00 Legend Double Dagger -0.2 -0.6 97 20 21 16.1 100.42   -6 LegendNANA
15:00 Legend Double Dagger -0.3 -0.7 97 22 11 LegendMM 100.44   -4 LegendNANA
16:00 Legend Double Dagger 0.2 -0.2 97 22 9 16.1 100.45     LegendNANA
17:00 Legend Double Dagger 0.2 -0.2 97 25 11 16.1 100.48     LegendNANA
18:00 Legend Double Dagger 0.4 0.0 97 28 11 16.1 100.51     LegendNANA
19:00 Legend Double Dagger 0.6 0.0 96 30 13 16.1 100.54     LegendNANA
20:00 Legend Double Dagger 0.5 -0.1 96 30 17 16.1 100.55     LegendNANA
21:00 Legend Double Dagger 0.5 -0.2 95 31 13 16.1 100.56     LegendNANA
22:00 Legend Double Dagger 0.4 -0.5 94 32 13 16.1 100.61     LegendNANA
23:00 Legend Double Dagger 0.4 -0.9 91 33 17 16.1 100.63     LegendNANA

Notes on Data Quality.

Legend

  • E = Estimated
  • M = Missing
  • NA = Not Available
  • ‡ = Partner data that is not subject to review by the National Climate Archives
Date modified: